Location: Newark
(36.2350°N, 59.6408°E)
Time: 15:20:24
(UTC+00:00)

ISS - Pass Details

Date: 25 November 2019
Orbit: 411 x 421 km, 51.6° (Epoch: 10 December)

Event Time Altitude Azimuth Distance (km) Brightness Sun altitude
Rises 13:28:43 0° 249° (WSW) 2,342 2.6 -8.3°
Reaches altitude 10° 13:30:55 10° 259° (W) 1,485 0.7 -8.7°
Maximum altitude 13:33:58 32° 325° (NW) 734 -2.4 -9.3°
Drops below altitude 10° 13:37:02 10° 31° (NNE) 1,497 -1.4 -9.9°
Enters shadow 13:37:14 - 33° (NNE) 1,571 -1.3 -10.0°
